Location: Burbank
(38.7788°N, 114.0429°W)
Time: 22:49:45
(UTC+00:00)

S-56A Canister/Altair - Pass Details

Date: 17 May 2026
Orbit: 633 x 2484 km, 38.9° (Epoch: 1 June)

Event Time Altitude Azimuth Distance (km) Brightness Sun altitude
Rises 09:19:05 0° 276° (W) 3,170 - -26.7°
Reaches altitude 10° 09:21:37 10° 262° (W) 2,400 - -26.5°
Maximum altitude 09:26:08 25° 208° (SSW) 1,870 - -26.1°
Drops below altitude 10° 09:32:03 10° 157° (SSE) 3,226 - -25.5°
Exits shadow 09:34:57 - 148° (SSE) 4,165 11.0 -25.2°
Sets 09:36:06 0° 146° (SE) 4,546 11.3 -25.1°
